Regional Weather Roundup
Issued by NWS

Home | Current Version | Previous Version | Text Only | Print | Product List | Glossary On
Versions: 1 2 3 4 5 6 7 8 9 10 11 12 13 14 15 16 17 18 19 20 21 22 23 24 25 26 27 28 29 30 31 32 33 34 35 36 37 38 39 40 41 42 43 44 45 46 47 48 49 50
000
ASUS45 KBOU 021707
RWRCO

WEATHER ROUNDUP FOR COLORADO
NATIONAL WEATHER SERVICE DENVER/BOULDER CO
1100 AM MDT WED SEP 02 2015

NOTE: "FAIR" INDICATES FEW OR NO CLOUDS BELOW 12000 FEET WITH NO
SIGNIFICANT WEATHER AND/OR OBSTRUCTIONS TO VISIBILITY.

COZ001>005-013-030-031-021800-
...NORTHWEST COLORADO...

CITY           SKY/WX    TMP DP  RH WIND       PRES   REMARKS
CRAIG          SUNNY     76  45  33 NE7       30.22F
HAYDEN         NOT AVBL
MEEKER         SUNNY     73  48  41 NE3       30.24F
MOUNT WERNER   NOT AVBL
STEAMBOAT SPGS SUNNY     68  45  44 E3        30.28S
WALDEN         SUNNY     70  41  35 SW5       30.34F
$$

COZ006>008-011-021800-
...WEST CENTRAL VALLEYS...

CITY           SKY/WX    TMP DP  RH WIND       PRES   REMARKS
GRAND JUNCTION SUNNY     74  50  42 SE6       30.16F
MONTROSE       SUNNY     74  52  46 N7        30.24F
EAGLE          MOSUNNY   64  46  52 CALM      30.33F
RIFLE          MOSUNNY   69  51  52 CALM      30.22F
DELTA          SUNNY     77  49  37 E5        30.20F
NUCLA          SUNNY     73  45  35 CALM      30.28S
$$

COZ017>023-064>068-021800-
...SOUTHWEST COLORADO...

CITY           SKY/WX    TMP DP  RH WIND       PRES   REMARKS
DURANGO        SUNNY     74  45  35 CALM      30.31S
CORTEZ         PTSUNNY   76  49  38 VRB6      30.24F
PAGOSA SPRINGS SUNNY     70  40  33 SW3       30.38F
TELLURIDE      CLOUDY    65  44  45 CALM      30.47S
WOLF CREEK PAS NOT AVBL
$$

COZ009-010-012-014-032>034-037-058>063-021800-
...CENTRAL COLORADO...

CITY           SKY/WX    TMP DP  RH WIND       PRES   REMARKS
ASPEN          PTSUNNY   65  46  50 N6        30.35F
BUENA VISTA    MOSUNNY   67  42  39 NW6       30.36F
COPPER MTN     PTSUNNY   54  41  62 W10       30.64S
BERTHOUD PASS  FAIR      46  34  61 NW15G25   30.67R
COTTONWOOD PAS MOSUNNY   63  41  45 CALM      30.50R
GUNNISON       SUNNY     61  45  55 CALM      30.43S
KREMMLING      MOSUNNY   61  46  59 CALM      30.36F
LEADVILLE      PTSUNNY   59  40  49 N6        30.49S
MONARCH PASS   MOSUNNY   48  41  76 W15G23    30.75R
SALIDA         MOSUNNY   70  42  36 CALM      30.41F
SUNLIGHT       PTSUNNY   61  48  63 CALM      30.58S
WILKERSON PASS PTSUNNY   55  36  47 NW3       30.61S
$$

COZ069>075-021800-
...SAN LUIS VALLEY/SANGRE DE CRISTO MOUNTAINS...

CITY           SKY/WX    TMP DP  RH WIND       PRES   REMARKS
ALAMOSA        SUNNY     69  44  40 VRB3      30.36F
LA VETA PASS   MOSUNNY   64  41  42 SW6G16    30.52S
SAGUACHE       SUNNY     68  46  45 S9        30.40S
$$

COZ035-036-038>040-021800-
...NORTHERN COLORADO FRONT RANGE...

CITY           SKY/WX    TMP DP  RH WIND       PRES   REMARKS
DENVER INTL AP PTSUNNY   84  38  19 VRB5      30.12F
DMNS CITY PARK   N/A     83  41  22 E5G13     30.12S
AURORA         PTSUNNY   80  40  23 SW1       30.15S
FRONT RANGE AP NOT AVBL
ERIE MUNI ARPT MOSUNNY   84  39  19 S5        30.09F
BOULDER MUN AP MOSUNNY   86  41  20 E6        30.10S
CENTENNIAL     PTSUNNY   79  39  23 VRB3      30.16S
BROOMFIELD     PTSUNNY   82  41  23 SE6       30.15S
FORT COLLINS   SUNNY     81  46  30 SE9       30.09F
LONGMONT       SUNNY     86  41  20 SE6       30.10F
$$

COZ041-046-047-076>085-087-088-021800-
...PIKES PEAK/PALMER DIVIDE AND SOUTHERN FOOTHILLS...

CITY           SKY/WX    TMP DP  RH WIND       PRES   REMARKS
COLO. SPRINGS  PTSUNNY   82  41  23 NW8       30.20S
A. F. ACADEMY  MOSUNNY   81  37  21 VRB3      30.21S
ELLICOTT       MOSUNNY  N/A N/A N/A NW7       30.18S
FALCON         MOSUNNY   78  39  25 MISG      30.26S
FORT CARSON    MOSUNNY   82  43  25 VRB1      30.16S
LIMON          PTSUNNY   82  43  25 N9        30.13S
MONUMENT HILL  MOSUNNY   77  34  20 NW9       30.26S
TRINIDAD       SUNNY     85  44  23 VRB3      30.16F
$$

COZ042>045-048>051-090-091-021800-
...NORTHEAST COLORADO...

CITY           SKY/WX    TMP DP  RH WIND       PRES   REMARKS
GREELEY ARPT   MOSUNNY   84  46  26 S6        30.08F
AKRON          SUNNY     84  42  22 N13       30.06F
BURLINGTON     PTSUNNY   86  49  27 VRB5      30.03F
WRAY           CLOUDY    90  45  21 CALM      29.98F
STERLING       NOT AVBL
HOLYOKE        SUNNY     86  45  23 CALM      29.99S
FORT MORGAN    SUNNY     86  43  22 W9        30.06F
$$

COZ086-089-092>099-021800-
...SOUTHEAST COLORADO...

CITY           SKY/WX    TMP DP  RH WIND       PRES   REMARKS
PUEBLO         MOSUNNY   89  43  20 W23       30.07F
LA JUNTA       SUNNY     89  49  25 W10       30.04F
LAMAR          SUNNY     86  53  32 W10       30.00S
SPRINGFIELD      N/A     91  46  21 VRB6G18   30.05F
$$




USA.gov is the U.S. government's official web portal to all federal, state and local government web resources and services.